Evanston, WY

12:25 AM MST on December 06, 2016 (GMT -0700)
Evanston-Uinta County Burns

Weather History for KEVW - November, 2012

Change the Weather History Date:

Friday, November 9, 2012

  Actual Average Record
Temperature  
Mean Temperature 37 °F 33 °F  
Max Temperature 48 °F 42 °F 63 °F (2016)
Min Temperature 26 °F 24 °F 10 °F (1998)
Degree Days  
Heating Degree Days 28 32  
Month to date heating degree days 179 272  
Since 1 July heating degree days 990 1325  
Cooling Degree Days 0 0  
Month to date cooling degree days 0 0  
Year to date cooling degree days 346 162  
Moisture  
Dew Point 26 °F    
Average Humidity 69    
Maximum Humidity 100    
Minimum Humidity 37    
Precipitation  
Precipitation 0.12 in 0.04 in 0.80 in (2004)
Month to date precipitation 0.12 0.41  
Year to date precipitation 5.15 10.92  
Sea Level Pressure  
Sea Level Pressure 29.57 in    
Wind  
Wind Speed 14 mph (WNW)    
Max Wind Speed 23 mph    
Max Gust Speed 39 mph    
Visibility 3 miles    
Events Fog , Rain , Snow    
T = Trace of Precipitation, MM = Missing Value Source: NWS Daily Summary

Daily Weather History Graph

Daily Weather History Graph

Search for Another Location

Airport or City:

Trip Planner

Search our weather history database for the weather conditions in past years. The results will help you decide how hot, cold, wet, or windy it might be!

Date:

Astronomy

Nov. 09, 2012 Rise Set
Actual Time 7:05 AM MST 5:09 PM MST
Civil Twilight 6:36 AM MST 5:39 PM MST
Nautical Twilight 6:03 AM MST 6:12 PM MST
Astronomical Twilight 5:30 AM MST 6:44 PM MST
Moon 2:05 AM MST (11/9) 2:27 PM MST (11/9)
Length of Visible Light 11h 02m
Length of Day
10h 04m
Waning Crescent, 22% of the Moon is Illuminated
Nov 9
Waning Crescent
Nov 13
New
Nov 20
First Quarter
Nov 28
Full
Dec 6
Last Quarter

Hourly Weather History & Observations

Time (MST) Temp. Windchill Dew Point Humidity Pressure Visibility Wind Dir Wind Speed Gust Speed Precip Events Conditions
12:53 AM 46.0 °F 39.0 °F 25.0 °F 44% 29.44 in 10.0 mi SSW 17.3 mph 25.3 mph 0.00 in   Mostly Cloudy
1:53 AM 45.0 °F 36.9 °F 28.9 °F 53% 29.43 in 10.0 mi South 20.7 mph 32.2 mph N/A   Partly Cloudy
2:53 AM 43.0 °F 35.7 °F 32.0 °F 65% 29.43 in 10.0 mi South 15.0 mph 25.3 mph 0.00 in Rain Light Rain
3:53 AM 42.1 °F 34.2 °F 34.0 °F 73% 29.42 in 10.0 mi South 16.1 mph - 0.00 in Rain Light Rain
4:40 AM 41.0 °F 32.5 °F 35.6 °F 81% 29.60 in 10.0 mi South 17.3 mph - 0.01 in   Overcast
4:53 AM 39.9 °F 32.1 °F 35.1 °F 83% 29.44 in 10.0 mi South 13.8 mph - 0.01 in Rain Light Rain
5:53 AM 42.1 °F 33.3 °F 34.0 °F 73% 29.42 in 10.0 mi SSW 19.6 mph 29.9 mph 0.00 in   Mostly Cloudy
6:26 AM 39.2 °F 28.0 °F 35.6 °F 87% 29.58 in 10.0 mi WSW 26.5 mph 32.2 mph 0.01 in Rain Light Rain
6:53 AM 39.0 °F 31.0 °F 37.0 °F 93% 29.43 in 10.0 mi SW 13.8 mph - 0.01 in Rain Light Rain
7:10 AM 37.4 °F 26.6 °F 37.4 °F 100% 29.59 in 5.0 mi SW 21.9 mph 28.8 mph 0.04 in Rain Rain
7:27 AM 37.4 °F 28.2 °F 35.6 °F 93% 29.60 in 9.0 mi WSW 16.1 mph 26.5 mph 0.06 in Rain Light Rain
7:53 AM 32.0 °F 20.1 °F 32.0 °F 100% 29.53 in 6.0 mi NNW 19.6 mph 27.6 mph 0.09 in Snow Light Snow
7:56 AM 30.2 °F 17.4 °F 30.2 °F 100% 29.63 in 5.0 mi NNW 20.7 mph 27.6 mph 0.00 in Snow Light Snow
7:59 AM 30.2 °F 16.8 °F 30.2 °F 100% 29.63 in 1.2 mi NNW 23.0 mph 28.8 mph 0.00 in Snow Light Snow
8:01 AM 30.2 °F 16.8 °F 30.2 °F 100% 29.63 in 0.8 mi NNW 23.0 mph 31.1 mph 0.00 in Snow Light Snow
8:18 AM 30.2 °F 16.8 °F 28.4 °F 93% 29.61 in 1.5 mi NNW 23.0 mph 32.2 mph 0.00 in Snow Light Snow
8:33 AM 28.4 °F 15.1 °F 28.4 °F 100% 29.62 in 0.8 mi North 20.7 mph 27.6 mph 0.00 in Snow Light Snow
9:05 AM 28.4 °F 14.7 °F 28.4 °F 100% 29.62 in 1.0 mi North 21.9 mph 29.9 mph 0.00 in Snow Light Snow
9:11 AM 28.4 °F 14.7 °F 26.6 °F 93% 29.63 in 0.5 mi North 21.9 mph 29.9 mph 0.00 in Fog , Snow Snow
9:22 AM 28.4 °F 15.4 °F 26.6 °F 93% 29.63 in 0.2 mi North 19.6 mph 25.3 mph 0.00 in Fog , Snow Heavy Snow
9:37 AM 26.6 °F 12.7 °F 26.6 °F 100% 29.62 in 0.2 mi North 20.7 mph 27.6 mph 0.00 in Fog Light Freezing Fog
9:53 AM 27.0 °F 14.7 °F 27.0 °F 100% 29.57 in 0.2 mi North 16.1 mph - 0.00 in Fog , Snow Heavy Snow
10:53 AM 27.0 °F 14.7 °F 27.0 °F 100% 29.57 in 0.5 mi North 16.1 mph - 0.00 in Fog , Snow Snow
11:32 AM 26.6 °F 14.7 °F 26.6 °F 100% 29.63 in 1.2 mi North 15.0 mph - 0.00 in Snow Light Snow
11:53 AM 27.0 °F 16.7 °F 26.1 °F 96% 29.56 in 1.0 mi North 11.5 mph - 0.00 in Snow Light Snow
12:00 PM 26.6 °F 16.2 °F 26.6 °F 100% 29.63 in 0.8 mi North 11.5 mph - 0.00 in Snow Light Snow
12:10 PM 26.6 °F 16.8 °F 26.6 °F 100% 29.63 in 0.5 mi North 10.4 mph - 0.00 in Fog , Snow Snow
12:21 PM 26.6 °F 17.5 °F 26.6 °F 100% 29.63 in 0.5 mi North 9.2 mph - 0.00 in Fog , Snow Snow
12:53 PM 28.0 °F 19.3 °F 26.1 °F 92% 29.54 in 1.0 mi North 9.2 mph - 0.00 in Snow Light Snow
1:12 PM 28.4 °F 21.2 °F 26.6 °F 93% 29.60 in 1.2 mi North 6.9 mph - 0.00 in Snow Light Snow
1:18 PM 28.4 °F 19.7 °F 26.6 °F 93% 29.59 in 0.8 mi North 9.2 mph - 0.00 in Snow Light Snow
1:30 PM 28.4 °F 21.2 °F 26.6 °F 93% 29.58 in 0.5 mi North 6.9 mph - 0.00 in Fog , Snow Snow
1:44 PM 28.4 °F 23.3 °F 26.6 °F 93% 29.59 in 0.8 mi North 4.6 mph - 0.00 in Snow Light Snow
1:53 PM 28.0 °F 21.7 °F 26.1 °F 92% 29.50 in 0.8 mi NNW 5.8 mph - 0.00 in Snow Light Snow
2:07 PM 28.4 °F 20.4 °F 24.8 °F 86% 29.58 in 1.2 mi NNE 8.1 mph - 0.00 in Snow Light Snow
2:19 PM 28.4 °F 22.2 °F 24.8 °F 86% 29.57 in 0.5 mi NE 5.8 mph - 0.00 in Fog , Snow Snow
2:51 PM 28.4 °F 23.3 °F 24.8 °F 86% 29.58 in 1.0 mi North 4.6 mph - 0.00 in Snow Light Snow
2:53 PM 28.0 °F 22.8 °F 25.0 °F 88% 29.51 in 0.8 mi NNE 4.6 mph - 0.00 in Snow Light Snow
3:27 PM 28.4 °F - 26.6 °F 93% 29.58 in 0.5 mi Calm Calm - 0.01 in Fog , Snow Snow
3:44 PM 26.6 °F 21.2 °F 24.8 °F 93% 29.57 in 0.5 mi NW 4.6 mph - 0.01 in Fog , Snow Snow
3:53 PM 27.0 °F 20.5 °F 25.0 °F 92% 29.50 in 0.2 mi North 5.8 mph - 0.01 in Fog , Snow Heavy Snow
4:14 PM 26.6 °F 21.2 °F 24.8 °F 93% 29.57 in 1.0 mi NNW 4.6 mph - 0.00 in Snow Light Snow
4:18 PM 26.6 °F 20.0 °F 24.8 °F 93% 29.56 in 2.0 mi NNW 5.8 mph - 0.00 in Snow Light Snow
4:21 PM 26.6 °F 20.0 °F 24.8 °F 93% 29.56 in 1.5 mi NNW 5.8 mph - 0.00 in Snow Light Snow
4:33 PM 26.6 °F 20.0 °F 24.8 °F 93% 29.55 in 0.5 mi North 5.8 mph - 0.00 in Fog , Snow Snow
4:43 PM 26.6 °F 22.6 °F 24.8 °F 93% 29.56 in 0.5 mi NNW 3.5 mph - 0.00 in Fog , Snow Snow
4:53 PM 27.0 °F 23.0 °F 25.0 °F 92% 29.52 in 0.5 mi NW 3.5 mph - 0.00 in Fog , Snow Snow
5:04 PM 26.6 °F 21.2 °F 24.8 °F 93% 29.57 in 0.8 mi West 4.6 mph - 0.00 in Snow Light Snow
5:27 PM 26.6 °F 21.2 °F 24.8 °F 93% 29.57 in 1.2 mi West 4.6 mph - 0.00 in Snow Light Snow
5:46 PM 26.6 °F 21.2 °F 24.8 °F 93% 29.56 in 2.0 mi WNW 4.6 mph - 0.00 in Snow Light Snow
5:53 PM 26.1 °F 21.9 °F 25.0 °F 96% 29.53 in 3.0 mi WSW 3.5 mph - 0.00 in Snow Light Snow
6:00 PM 26.6 °F 21.2 °F 24.8 °F 93% 29.57 in 4.0 mi WSW 4.6 mph - 0.00 in Snow Light Snow
6:22 PM 26.6 °F 20.0 °F 24.8 °F 93% 29.58 in 2.5 mi WSW 5.8 mph - 0.00 in Snow Light Snow
6:37 PM 26.6 °F 20.0 °F 24.8 °F 93% 29.58 in 2.0 mi SW 5.8 mph - 0.00 in Snow Light Snow
6:50 PM 26.6 °F 19.1 °F 24.8 °F 93% 29.58 in 1.8 mi SW 6.9 mph - 0.00 in Snow Light Snow
6:53 PM 26.1 °F 17.6 °F 25.0 °F 96% 29.55 in 1.5 mi SW 8.1 mph - 0.00 in Snow Light Snow
7:11 PM 26.6 °F 18.2 °F 24.8 °F 93% 29.58 in 1.8 mi SW 8.1 mph - 0.00 in Snow Light Snow
7:13 PM 26.6 °F 18.2 °F 24.8 °F 93% 29.58 in 1.5 mi SW 8.1 mph - 0.00 in Snow Light Snow
7:28 PM 26.6 °F 17.5 °F 24.8 °F 93% 29.58 in 1.2 mi SW 9.2 mph - 0.00 in Snow Light Snow
7:35 PM 26.6 °F 16.2 °F 24.8 °F 93% 29.59 in 1.8 mi SW 11.5 mph - 0.00 in Snow Light Snow
7:43 PM 26.6 °F 16.8 °F 24.8 °F 93% 29.59 in 2.0 mi SW 10.4 mph - 0.00 in Snow Light Snow
7:53 PM 26.1 °F 16.2 °F 25.0 °F 96% 29.60 in 1.8 mi SW 10.4 mph - 0.00 in Snow Light Snow
8:03 PM 26.6 °F 16.2 °F 24.8 °F 93% 29.59 in 1.2 mi SW 11.5 mph - 0.00 in Snow Light Snow
8:17 PM 26.6 °F 15.7 °F 24.8 °F 93% 29.59 in 0.8 mi SW 12.7 mph - 0.00 in Snow Light Snow
8:26 PM 26.6 °F 16.8 °F 24.8 °F 93% 29.59 in 1.2 mi SW 10.4 mph - 0.00 in Snow Light Snow
8:29 PM 26.6 °F 15.7 °F 24.8 °F 93% 29.59 in 1.8 mi SW 12.7 mph - 0.00 in Snow Light Snow
8:34 PM 26.6 °F 15.2 °F 24.8 °F 93% 29.59 in 2.5 mi WSW 13.8 mph - 0.00 in Snow Light Snow
8:38 PM 24.8 °F 12.9 °F 24.8 °F 100% 29.59 in 3.0 mi WSW 13.8 mph - 0.00 in Snow Light Snow
8:46 PM 24.8 °F 14.6 °F 23.0 °F 93% 29.60 in 3.0 mi WSW 10.4 mph - 0.00 in Snow Light Snow
8:49 PM 24.8 °F 14.0 °F 23.0 °F 93% 29.60 in 2.5 mi WSW 11.5 mph - 0.00 in Snow Light Snow
8:53 PM 25.0 °F 14.2 °F 23.0 °F 92% 29.63 in 2.0 mi West 11.5 mph - 0.00 in Snow Light Snow
9:05 PM 24.8 °F 14.0 °F 21.2 °F 86% 29.59 in 4.0 mi West 11.5 mph - 0.00 in Snow Light Snow
9:16 PM 24.8 °F 14.0 °F 21.2 °F 86% 29.60 in 4.0 mi WSW 11.5 mph - 0.00 in Snow Light Snow
9:53 PM 23.0 °F 12.4 °F 21.0 °F 92% 29.66 in 6.0 mi WSW 10.4 mph - 0.00 in Snow Light Snow
10:53 PM 21.9 °F 12.5 °F 19.0 °F 89% 29.66 in 10.0 mi WSW 8.1 mph - 0.00 in   Overcast
11:28 PM 21.2 °F 12.6 °F 19.4 °F 93% 29.60 in 2.5 mi WSW 6.9 mph - 0.00 in Snow Light Snow
11:46 PM 21.2 °F 12.6 °F 19.4 °F 93% 29.61 in 1.8 mi SW 6.9 mph - 0.00 in Snow Light Snow
11:53 PM 21.9 °F 14.5 °F 19.9 °F 92% 29.65 in 1.8 mi SW 5.8 mph - 0.00 in Snow Light Snow